SCP
0 0 1 1 1 1 1 0 0 0 0 0 0 0 0 0 0 0 0 0 0 0 0 0 0 0 0 0 0 0 0 0 0 0 0 0 0 0 0 0 0 0 0
0 0 1 1 1 1 1 0 0 0 0 0 0 0 0 0 0 0 0 0 0 0 0 0 0 0 0 0 0 0 0 0 0 0 0 0 0 0 0 0 0 0 0
0 0 1 1 1 1 1 0 0 0 0 0 0 0 0 0 0 0 0 0 0 0 0 0 0 0 0 0 0 0 0 0 0 0 0 0 0 0 0 0 0 0 0
0 0 1 1 1 1 1 1 0 0 0 0 0 0 0 0 0 0 0 0 0 0 0 0 0 0 0 0 0 0 0 0 0 0 0 0 0 0 0 0 0 0 0
0 0 1 1 1 1 1 1 0 0 0 0 0 0 0 0 0 0 0 0 0 0 0 0 0 0 0 0 0 0 0 0 0 0 0 0 0 0 0 0 0 0 0
0 0 1 1 1 1 1 1 1 0 0 0 0 0 0 0 0 0 0 0 0 0 0 0 0 0 0 0 0 0 0 0 0 0 0 0 0 0 0 0 0 0 0
0 0 1 1 1 1 1 1 0 0 0 0 0 0 0 0 0 0 0 0 0 0 0 0 0 0 0 0 0 0 0 0 0 0 0 0 0 0 0 0 0 0 0
0 1 1 1 1 1 1 1 0 0 0 0 0 0 0 0 0 0 0 0 0 0 0 0 0 0 0 0 0 0 0 0 0 0 0 0 0 0 0 0 0 0 0
0 0 1 1 1 0 0 0 0 0 0 0 0 0 0 0 0 0 0 0 0 0 0 0 0 0 0 0 0 0 0 0 0 0 0 0 0 0 0 0 0 0 0
0 0 0 0 0 0 0 0 0 0 0 0 0 0 0 0 0 0 0 0 0 0 0 0 0 0 0 0 0 0 0 0 0 0 0 0 0 0 0 0 0 0 0
0 0 0 0 0 0 0 0 0 0 0 0 0 0 0 0 0 0 0 0 0 0 0 0 0 0 0 0 0 0 0 0 0 0 0 0 0 0 0 0 0 0 0
0 0 0 0 0 0 0 0 0 0 0 0 0 0 0 0 0 0 0 0 0 0 0 0 0 0 0 0 0 0 0 0 0 0 0 0 0 0 0 0 0 0 0
0 0 0 0 0 0 0 0 0 0 0 0 0 0 0 0 0 0 0 0 0 0 0 0 0 0 0 0 0 0 0 0 0 0 0 0 0 0 0 0 0 0 0
0 0 0 0 0 0 0 0 0 0 0 0 0 0 0 0 0 0 0 0 0 0 0 0 0 0 0 0 0 0 0 0 0 0 0 0 0 0 0 0 0 0 0
0 0 0 0 0 0 0 0 0 0 0 0 0 0 0 0 0 0 0 0 0 0 0 0 0 0 0 0 0 0 0 0 0 0 0 0 0 0 0 0 0 0 0
0 0 0 0 0 0 0 0 0 0 0 0 0 0 0 0 0 0 0 0 0 0 0 0 0 0 0 0 0 0 0 0 0 0 0 0 0 0 0 0 0 0 0
0 0 0 0 0 0 0 0 0 0 0 0 0 0 0 0 0 0 0 0 0 0 0 0 0 0 0 0 0 0 0 0 0 0 0 0 0 0 0 0 0 0 0
0 0 0 0 0 0 0 0 0 0 0 0 0 0 0 0 0 0 0 0 0 0 0 0 0 0 0 0 0 0 0 0 0 0 0 0 0 0 0 0 0 0 0
0 0 0 0 0 0 0 0 0 0 0 0 0 0 0 0 0 0 0 0 0 0 0 0 0 0 0 0 0 0 0 0 0 0 0 0 0 0 0 0 0 0 0
0 0 0 0 0 0 0 0 0 0 0 0 0 0 0 0 0 0 0 0 0 0 0 0 0 0 0 0 0 0 0 0 0 0 0 0 0 0 0 0 0 0 0
0 0 0 0 0 0 0 0 0 0 0 0 0 0 0 0 0 0 0 0 0 0 0 0 0 0 0 0 0 0 0 0 0 0 0 0 0 0 0 0 0 0 0
0 0 0 0 0 0 0 0 0 0 0 0 0 0 0 0 0 0 0 0 0 0 0 0 0 0 0 0 0 0 0 0 0 0 0 0 0 0 0 0 0 0 0
0 0 0 0 0 0 0 0 0 0 0 0 0 0 0 0 0 0 0 0 0 0 0 0 0 0 0 0 0 0 0 0 0 0 0 0 0 0 0 0 0 0 0
0 0 0 0 0 0 0 0 0 0 0 0 0 0 0 0 0 0 0 0 0 0 0 0 0 0 0 0 0 0 0 0 0 0 0 0 0 0 0 0 0 0 0
0 0 0 0 0 0 0 0 0 0 0 0 0 0 0 0 0 0 0 0 0 0 0 0 0 0 0 0 0 0 0 0 0 0 0 0 0 0 0 0 0 0 0
0 0 0 0 0 0 0 0 0 0 0 0 0 0 0 0 0 0 0 0 0 0 0 0 0 0 0 0 0 0 0 0 0 0 0 0 0 0 0 0 0 0 0
Wind_Speed
0 1 2 3 3 3 3 2 2 2 2 2 1 1 1 2 2 2 3 3 3 3 3 2 3 3 2 3 3 2 3 3 3 3 4 4 3 2 2 2 2 3 3
1 2 2 3 3 2 1 1 1 2 2 1 1 1 0 1 1 2 3 3 3 3 3 2 2 3 2 4 3 2 2 2 3 2 2 4 5 4 3 3 3 3 3
3 2 2 2 2 1 1 1 1 1 1 2 2 2 2 2 3 3 3 4 4 3 2 2 2 2 2 2 3 2 1 2 2 1 1 1 2 4 4 3 3 4 3
2 2 2 2 1 0 1 2 2 2 2 2 2 2 1 1 1 2 2 4 4 4 3 2 2 2 2 2 3 2 1 0 2 2 1 1 2 1 4 4 3 4 3
3 3 3 2 1 1 2 2 3 3 3 3 3 2 1 0 1 2 3 4 4 4 4 3 2 2 2 2 3 2 1 0 1 1 1 1 0 1 1 3 4 4 3
3 3 2 2 2 2 2 3 3 3 3 3 3 2 1 1 2 3 3 3 3 3 4 3 3 3 2 3 2 2 2 1 2 1 1 1 1 1 1 2 3 3 4
4 4 3 3 2 2 2 3 3 2 2 3 2 2 1 1 1 2 2 3 3 3 4 4 3 3 3 3 2 2 3 2 2 2 2 2 2 2 2 2 2 2 3
4 4 4 3 3 2 2 3 3 2 2 2 2 2 1 1 1 1 1 2 2 3 4 4 3 4 4 3 2 2 3 2 2 3 2 2 3 2 2 2 1 2 2
5 4 4 3 3 3 2 2 3 2 1 1 1 2 2 1 1 2 2 2 3 3 4 4 4 4 4 3 3 2 3 3 3 3 3 2 2 2 2 2 2 2 1
5 5 4 3 3 2 2 2 2 2 1 1 1 1 1 1 1 2 3 3 3 4 4 4 4 4 4 4 3 3 3 3 3 2 3 3 2 2 2 2 2 2 2
7 6 4 3 3 3 2 2 2 2 1 1 1 2 2 2 2 2 3 3 3 4 4 4 4 4 4 4 3 3 4 4 4 4 3 4 3 2 2 1 2 2 2
6 5 5 4 3 3 2 2 2 2 1 1 1 1 2 2 2 3 3 3 3 4 4 4 4 4 4 4 4 4 4 4 4 5 4 4 3 3 2 1 2 2 3
6 5 4 4 4 3 3 2 2 1 1 2 2 2 2 2 2 2 3 3 3 3 4 4 4 4 4 4 4 3 4 3 3 4 4 4 4 4 3 2 2 2 2
7 6 5 5 4 4 3 3 2 1 2 2 2 1 1 1 2 2 2 3 3 3 4 4 4 4 4 4 4 4 4 4 4 4 3 4 4 4 4 3 3 2 2
8 8 7 5 5 4 3 3 2 2 2 2 1 0 1 1 1 2 2 3 3 3 3 4 4 5 4 4 5 4 4 4 4 4 4 4 6 6 4 3 2 2 2
10 9 8 7 6 6 5 4 3 2 2 2 1 0 1 1 2 2 2 3 3 3 3 4 4 5 5 10 10 6 3 3 4 5 5 5 5 7 8 8 6 3 2
10 10 10 8 7 7 6 5 4 3 3 2 1 0 0 1 1 2 2 2 3 3 4 4 4 5 7 11 11 10 4 3 4 4 4 5 6 6 4 7 7 6 7
10 10 9 8 6 5 5 4 4 3 3 2 1 1 1 0 1 1 2 2 2 2 3 4 5 5 7 12 12 11 4 3 4 4 4 5 5 5 5 4 5 5 5
10 9 9 7 6 6 6 5 4 3 3 3 2 2 1 1 1 1 2 2 2 3 3 4 4 5 7 12 12 10 3 3 5 5 4 5 5 9 9 4 4 5 6
7 7 7 6 6 5 6 6 5 4 4 4 3 2 2 2 2 2 2 2 2 3 3 4 4 5 6 11 12 11 3 3 4 4 5 7 8 10 9 4 4 5 6
7 8 8 7 7 6 7 6 5 5 5 4 3 2 2 3 3 2 2 2 2 3 3 5 5 5 7 10 12 10 3 3 4 4 4 5 11 12 11 8 5 7 7
7 8 8 6 5 6 7 6 6 5 4 3 3 3 3 2 1 1 2 2 2 2 4 4 6 5 6 7 10 12 9 7 3 4 4 6 12 12 11 8 8 10 8
8 7 7 6 5 5 7 7 6 5 4 4 3 3 3 2 2 2 2 2 2 2 3 3 5 6 5 6 11 12 11 10 5 4 8 10 12 10 7 8 10 7 3
7 6 7 7 6 5 6 6 5 5 5 5 4 3 3 3 2 2 2 2 3 3 3 4 5 5 5 5 5 5 6 7 6 5 7 10 9 6 6 7 5 3 3
5 6 7 7 7 6 6 5 5 5 5 4 4 3 3 3 3 3 3 4 5 5 5 4 4 5 6 8 11 8 5 4 5 4 3 3 3 3 4 4 4 3 3
6 6 6 6 6 6 6 5 5 6 6 4 4 3 3 3 3 3 4 6 7 10 11 10 8 7 10 13 14 13 12 12 10 5 2 3 4 4 4 4 4 4 4
Wind_Direction
339 71 88 97 102 90 93 98 97 84 80 67 66 56 23 356 355 356 357 360 2 5 11 6 360 6 8 351 351 353 354 349 344 3 345 336 343 1 356 347 344 339 331
63 60 76 80 89 98 111 116 115 103 91 85 105 110 101 340 327 335 352 358 356 355 3 4 348 350 354 357 1 10 359 348 9 33 18 351 345 344 353 350 351 340 334
159 138 105 86 84 80 126 141 135 115 100 94 79 54 38 16 9 359 351 343 341 339 341 346 346 348 357 342 340 353 16 343 345 35 91 65 314 314 326 341 347 343 339
155 147 131 115 123 130 87 93 103 92 81 91 88 88 84 24 313 317 322 330 344 343 339 335 338 340 342 332 325 352 329 357 330 336 3 190 202 288 323 325 332 335 332
164 158 159 163 134 97 95 91 90 73 61 73 85 87 69 346 324 335 340 340 340 343 344 340 337 331 322 319 326 336 330 271 255 281 299 321 312 211 221 306 322 332 319
151 143 136 116 93 84 86 88 90 67 56 67 68 79 67 16 5 350 343 339 335 335 343 343 339 323 316 311 311 312 311 284 263 257 238 222 232 233 207 258 298 311 306
149 143 136 127 118 111 101 96 96 71 55 64 55 50 48 47 21 343 337 340 339 331 331 343 334 325 317 312 311 313 308 296 278 261 250 237 234 215 198 223 269 293 301
156 158 159 152 147 136 118 109 107 89 61 62 41 33 36 45 13 358 345 328 311 304 320 336 333 326 328 331 326 318 309 306 295 287 271 257 251 222 204 204 215 302 314
163 160 153 151 152 149 146 143 130 107 61 53 50 28 20 26 11 353 350 335 326 328 337 343 342 338 338 335 334 328 319 320 307 301 292 274 267 249 229 213 198 202 281
167 163 159 158 155 151 142 123 129 137 131 72 66 58 17 6 9 14 359 346 340 343 345 348 346 345 346 345 343 331 324 334 321 310 312 302 282 277 253 229 220 208 212
177 173 168 165 155 136 123 116 113 109 90 72 59 43 17 14 23 15 355 347 346 350 351 345 347 345 344 345 348 338 336 335 328 328 320 311 304 290 278 249 230 224 211
175 168 162 155 148 142 135 125 123 121 127 104 78 52 30 32 27 4 347 349 349 348 347 347 351 347 345 342 341 336 339 333 328 325 324 317 323 310 290 269 251 240 224
166 160 158 162 166 165 158 143 136 140 127 97 80 55 35 28 9 352 347 351 351 350 351 353 347 340 336 333 330 325 324 319 317 318 316 313 318 310 301 285 272 262 255
170 169 173 177 178 175 168 158 156 154 132 104 87 62 7 342 335 344 351 349 350 352 349 343 335 332 328 324 324 323 324 319 317 316 313 305 293 290 297 292 283 276 270
179 180 180 181 179 176 174 168 170 167 141 118 104 1 317 341 354 356 350 350 353 351 342 342 337 333 327 330 330 322 327 321 321 322 319 308 308 307 304 299 288 285 278
187 184 181 179 183 183 181 175 179 180 152 146 168 203 28 16 0 347 349 355 350 344 348 346 335 334 335 335 338 334 325 319 317 315 315 312 312 317 317 310 300 283 272
187 185 185 186 187 187 180 179 182 167 156 161 170 168 109 17 338 341 359 347 337 343 343 339 337 330 323 335 341 340 329 308 302 301 308 318 323 326 312 312 313 298 287
186 187 185 183 183 178 173 166 158 160 161 167 181 199 184 291 328 347 333 319 314 323 323 325 326 324 328 341 343 342 340 313 302 297 293 296 301 307 312 310 310 300 293
184 183 180 173 168 170 167 153 157 162 165 183 199 210 199 215 278 303 298 295 302 310 310 309 316 319 320 335 341 344 327 320 311 302 300 300 292 304 316 306 295 300 299
165 162 157 152 161 171 159 154 167 173 194 203 206 208 205 210 235 257 273 277 281 290 306 313 310 309 309 325 335 338 322 317 313 309 306 310 312 313 318 296 276 287 292
158 155 155 164 174 168 159 167 178 199 206 196 192 205 217 223 229 242 257 269 288 308 314 310 308 305 305 317 327 330 318 296 300 305 306 305 313 315 314 308 275 273 287
155 157 161 170 170 165 164 176 199 206 190 180 189 211 225 238 231 231 271 278 286 303 308 310 310 305 305 309 316 322 317 311 287 287 289 296 308 310 313 310 296 296 301
163 162 164 165 171 177 175 186 207 191 177 179 201 218 226 238 232 229 254 277 278 281 292 297 300 303 305 306 314 319 317 313 300 282 293 302 310 312 314 308 305 308 297
168 163 159 168 186 194 197 201 198 182 175 190 208 216 220 239 249 249 241 245 257 267 279 286 289 296 301 300 303 307 307 305 302 297 300 308 313 311 303 306 305 293 273
171 169 175 184 196 197 205 208 193 176 183 198 210 218 223 229 242 250 244 241 242 238 251 260 262 280 292 289 295 301 297 285 274 290 297 302 307 312 307 302 294 287 286
171 175 184 191 198 197 208 210 197 183 183 200 215 219 225 232 237 253 280 265 256 272 271 268 267 269 274 291 299 303 302 299 295 298 283 283 281 279 284 287 292 289 280